Weather History for Volk, WI

Change the Weather History Date:

Wednesday, February 6, 2013

  Actual Average Record
Temperature  
Mean Temperature 8 °F -  
Max Temperature 26 °F 27 °F 44 °F (2002)
Min Temperature -9 °F 15 °F -9 °F (2013)
Degree Days  
Heating Degree Days 56    
Moisture  
Dew Point 12 °F    
Average Humidity 84    
Maximum Humidity 93    
Minimum Humidity 74    
Precipitation  
Precipitation 0.02 in - - ()
Snow  
Snow 0.00 in - - ()
Snow Depth 12.00 in    
Sea Level Pressure  
Sea Level Pressure 30.13 in    
Wind  
Wind Speed 4 mph (ESE)    
Max Wind Speed 12 mph    
Max Gust Speed -    
Visibility 8 miles    
Events Snow    
Averages and records for this station are not official NWS values.
T = Trace of Precipitation, MM = Missing Value Source: NWS Daily Summary

Daily Weather History Graph

Daily Weather History Graph

Search for Another Location

Airport:

Trip Planner

Search our weather history database for the weather conditions in past years. The results will help you decide how hot, cold, wet, or windy it might be!

Date:

Astronomy

Feb. 06, 2013 Rise Set
Actual Time 7:11 AM CST 5:18 PM CST
Civil Twilight 6:41 AM CST 5:49 PM CST
Nautical Twilight 6:07 AM CST 6:23 PM CST
Astronomical Twilight 5:34 AM CST 6:56 PM CST
Moon 3:59 AM CST (2/6) 1:33 PM CST (2/6)
Length of Visible Light 11h 07m
Length of Day
10h 06m
Waning Crescent, 17% of the Moon is Illuminated
Feb 6
Waning Crescent
Feb 10
New
Feb 17
First Quarter
Feb 25
Full
Mar 4
Last Quarter

Hourly Weather History & Observations

Time (CST) Temp. Windchill Dew Point Humidity Pressure Visibility Wind Dir Wind Speed Gust Speed Precip Events Conditions
12:55 AM 0.3 °F - -3.3 °F 85% 30.14 in 10.0 mi Calm Calm - N/A   Clear
1:55 AM -3.1 °F - -7.1 °F 83% 30.14 in 10.0 mi Calm Calm - N/A   Clear
2:55 AM -1.8 °F - -5.6 °F 84% 30.17 in 10.0 mi Calm Calm - N/A   Clear
3:22 AM -5.8 °F -14.5 °F -9.4 °F 84% 30.16 in 10.0 mi ESE 3.5 mph - N/A Snow Light Snow
3:33 AM -5.8 °F -14.5 °F -9.4 °F 84% 30.16 in 10.0 mi SE 3.5 mph - N/A   Clear
3:55 AM -4.0 °F - -8.5 °F 81% 30.16 in 10.0 mi Calm Calm - 0.00 in   Clear
4:55 AM -6.2 °F - -10.5 °F 82% 30.17 in 10.0 mi Calm Calm - N/A   Clear
5:55 AM -8.1 °F - -12.5 °F 81% 30.18 in 10.0 mi Calm Calm - N/A   Clear
6:55 AM -9.4 °F -18.6 °F -14.8 °F 77% 30.19 in 6.0 mi East 3.5 mph - N/A   Partly Cloudy
7:55 AM -5.8 °F - -11.2 °F 77% 30.21 in 6.0 mi Calm Calm - N/A   Partly Cloudy
8:55 AM 1.4 °F - -2.2 °F 85% 30.23 in 6.0 mi Calm Calm - N/A   Mostly Cloudy
9:20 AM 3.2 °F -7.8 °F -0.4 °F 85% 30.22 in 10.0 mi East 5.8 mph - N/A Snow Light Snow
9:37 AM 5.0 °F -5.6 °F 1.4 °F 85% 30.21 in 10.0 mi East 5.8 mph - N/A   Partly Cloudy
9:55 AM 8.6 °F -1.3 °F 6.8 °F 92% 30.22 in 7.0 mi East 5.8 mph - N/A   Mostly Cloudy
10:55 AM 15.8 °F - 14.0 °F 93% 30.21 in 10.0 mi Calm Calm - N/A   Overcast
11:55 AM 21.2 °F 13.6 °F 15.8 °F 80% 30.20 in 10.0 mi SSE 5.8 mph - N/A   Overcast
12:55 PM 24.8 °F 19.1 °F 17.6 °F 74% 30.18 in 10.0 mi SSE 4.6 mph - N/A   Overcast
1:12 PM 24.8 °F 16.9 °F 17.6 °F 74% 30.17 in 1.5 mi SSE 6.9 mph - N/A Snow Light Snow
1:35 PM 24.8 °F 16.9 °F 19.4 °F 80% 30.11 in 1.2 mi SE 6.9 mph - N/A Snow Light Snow
1:55 PM 24.8 °F 16.9 °F 21.2 °F 86% 30.16 in 1.2 mi ESE 6.9 mph - N/A Snow Light Snow
1:58 PM 24.8 °F 16.9 °F 21.2 °F 86% 30.15 in 1.2 mi ESE 6.9 mph - N/A Snow Light Snow
2:03 PM 24.8 °F 16.9 °F 21.2 °F 86% 30.15 in 1.2 mi ESE 6.9 mph - N/A Snow Light Snow
2:08 PM 24.8 °F 16.1 °F 21.2 °F 86% 30.15 in 1.5 mi ESE 8.1 mph - N/A Snow Light Snow
2:13 PM 24.8 °F 16.1 °F 21.2 °F 86% 30.09 in 2.0 mi SE 8.1 mph - N/A Snow Light Snow
2:31 PM 24.8 °F 16.9 °F 21.2 °F 86% 30.09 in 4.0 mi SE 6.9 mph - N/A Snow Light Snow
2:39 PM 24.8 °F 14.6 °F 21.2 °F 86% 30.08 in 7.0 mi SE 10.4 mph - N/A Snow Light Snow
2:55 PM 24.8 °F 15.3 °F 21.2 °F 86% 30.13 in 10.0 mi ESE 9.2 mph - N/A Snow Light Snow
3:55 PM 24.8 °F 14.0 °F 21.2 °F 86% 30.12 in 10.0 mi ESE 11.5 mph - N/A Snow Light Snow
4:18 PM 24.8 °F 14.6 °F 19.4 °F 80% 30.04 in 10.0 mi ESE 10.4 mph - N/A   Overcast
4:55 PM 26.6 °F 18.2 °F 21.2 °F 80% 30.09 in 10.0 mi East 8.1 mph - N/A   Overcast
6:55 PM 26.6 °F 16.2 °F 21.2 °F 80% 30.06 in 10.0 mi ESE 11.5 mph - N/A Snow Light Snow
7:08 PM 26.6 °F 16.2 °F 21.2 °F 80% 30.00 in 10.0 mi East 11.5 mph - N/A   Overcast
7:19 PM 26.6 °F 17.5 °F 21.2 °F 80% 30.01 in 10.0 mi East 9.2 mph - N/A   Overcast
7:55 PM 26.6 °F - 21.2 °F 80% 30.09 in 10.0 mi Calm Calm - N/A Snow Light Snow
8:20 PM 26.6 °F 22.6 °F 23.0 °F 86% 30.03 in 7.0 mi East 3.5 mph - N/A Snow Light Snow
8:55 PM 26.6 °F 21.2 °F 23.0 °F 86% 30.08 in 7.0 mi ENE 4.6 mph - N/A Snow Light Snow
9:21 PM 26.6 °F 19.1 °F 23.0 °F 86% 30.02 in 7.0 mi East 6.9 mph - N/A   Overcast
9:34 PM 26.6 °F 20.0 °F 23.0 °F 86% 30.03 in 10.0 mi ENE 5.8 mph - N/A   Overcast
9:55 PM 26.6 °F 19.1 °F 23.0 °F 86% 30.09 in 7.0 mi East 6.9 mph - N/A   Overcast
10:02 PM 26.6 °F 20.0 °F 23.0 °F 86% 30.04 in 7.0 mi East 5.8 mph - N/A Snow Light Snow
10:55 PM 26.6 °F 20.0 °F 24.8 °F 93% 30.07 in 7.0 mi East 5.8 mph - N/A Snow Light Snow
11:55 PM 26.6 °F - 24.8 °F 93% 30.07 in 7.0 mi Calm Calm - N/A Snow Light Snow